CubeBel-2 (EU11S)
1 57175U 23091K   26173.81127475  .00010355  00000-0  36657-3 0  9998
2 57175  97.5050 237.0787 0011246  97.6933 262.5584 15.29270084165167
RS-38S
1 57189U 23091Z   26173.81497102  .00013043  00000-0  37183-3 0  9992
2 57189  97.5090 243.4134 0007906  60.7099 299.4933 15.36175339165550
SONATE-2
1 59112U 24043Q   26173.85123223  .00032866  00000-0  42101-3 0  9992
2 59112  97.5538 324.5963 0007280 176.8356 183.2948 15.59094291128777
GRBBeta
1 60237U 24128C   26173.52945703  .00002145  00000-0  15599-3 0  9993
2 60237  61.9882 197.5223 0039947 135.7790 224.6508 15.06664014107072
Curium One
1 60242U 24128H   26173.59107479  .00004566  00000-0  26863-3 0  9991
2 60242  61.9769 186.6339 0039247 131.6342 228.8126 15.12564531107274
ROBUSTA-3A
1 60243U 24128J   26173.42654769  .00003434  00000-0  20996-3 0  9997
2 60243  61.9849 189.7146 0040671 129.0308 231.4419 15.11716494107215
CatSat
1 60246U 24125J   26173.66000495  .00050047  00000-0  62888-3 0  9992
2 60246  97.2091  26.2337 0022489 160.4293 199.7833 15.59234911108246
HYPERVIEW-1G (RS66S)
1 61772U 24199AP  26173.77527187  .00129662  00000-0  78327-3 0  9997
2 61772  97.2865  53.7817 0005117 197.7492 162.3597 15.77238828135559
AO-123
1 61781U 24199AY  26173.83380856  .00005786  00000-0  16840-3 0  9996
2 61781  97.2999  42.4534 0011981 290.9998  68.9964 15.35742963134799
JINJUSat 1B
1 63210U 25052A   26173.17016566  .00012731  00000-0  39353-3 0  9997
2 63210  97.3998  69.9319 0005371  80.3267 279.8582 15.33635797 70869
NUSHSAT 1
1 63211U 25052B   26173.46636689  .00016336  00000-0  46554-3 0  9990
2 63211  97.3974  70.8122 0005179  83.6906 276.4928 15.36146237 70955
TEVEL2-4
1 63213U 25052D   26172.68117075  .00014398  00000-0  42941-3 0  9990
2 63213  97.3895  69.0801 0004965  94.6694 265.5117 15.34745367 70801
TEVEL2-5
1 63214U 25052E   26173.41945353  .00013715  00000-0  41121-3 0  9992
2 63214  97.3894  69.7659 0004889  94.7236 265.4565 15.34589962 70912
TEVEL2-6
1 63215U 25052F   26173.23628066  .00013939  00000-0  41841-3 0  9999
2 63215  97.3899  69.5668 0004758  95.5111 264.6675 15.34550217 70882
TEVEL2-1
1 63217U 25052H   26172.67998997  .00013561  00000-0  41432-3 0  9998
2 63217  97.3870  68.6292 0004905 104.4145 255.7643 15.33994869 70786
TEVEL2-3
1 63218U 25052J   26173.19630016  .00013736  00000-0  41869-3 0  9990
2 63218  97.3873  69.1678 0004858 103.9663 256.2121 15.34065187 70869
TEVEL2-2
1 63219U 25052K   26173.26735470  .00013780  00000-0  42062-3 0  9994
2 63219  97.3874  69.2190 0004904 103.8133 256.3656 15.34020096 70879
TEVEL2-9
1 63237U 25052AD  26173.44730229  .00012471  00000-0  40513-3 0  9996
2 63237  97.3936  68.7627 0008184 116.4765 243.7317 15.32032450 70837
TEVEL2-7
1 63238U 25052AE  26173.22791571  .00011733  00000-0  38497-3 0  9998
2 63238  97.3939  68.4578 0008226 117.2661 242.9419 15.31728224 70793
TEVEL2-8
1 63239U 25052AF  26173.69351598  .00011938  00000-0  39166-3 0  9992
2 63239  97.3936  68.8989 0008249 116.5342 243.6747 15.31724980 70869
SPIRONE
1 66657U 25274H   26173.54763073  .00001847  00000-0  18041-3 0  9991
2 66657  97.7480 102.7621 0012147   4.6793 355.4538 14.93562535 31022
K-HERO
1 66660U 25274L   26173.34979910  .00001822  00000-0  17614-3 0  9990
2 66660  97.7488 102.7320 0014147   8.3935 351.7519 14.93978792 31003
SNUGLITE-III DURI
1 66661U 25274M   26173.33743986  .00001409  00000-0  13726-3 0  9993
2 66661  97.7484 102.7403 0014778   9.1040 351.0445 14.94014922 31006
SAKHACUBE-CHOLBON
1 67290U 25313AU  26173.47540641  .00007201  00000-0  29146-3 0  9993
2 67290  97.3936 248.4448 0008303 345.9303  14.1703 15.24965507 26781
RS95S (QMR-KWT-2)
1 67291U 25313AV  26173.19652892  .00009706  00000-0  37533-3 0  9996
2 67291  97.3926 248.3548 0007737 344.2345  15.8651 15.26399757 26756
Ten-Koh2
1 68261U 25241B   26173.72101997  .00004002  00000-0  17685-3 0  9998
2 68261  51.6693 293.2929 0005618 157.9978 202.1242 15.23955813 15750
JACK-002
1 68417U 26067B   26173.42997416  .00005231  00000-0  24997-3 0  9993
2 68417  97.4565 131.9555 0000483 170.4697 189.6547 15.19446642 12748
DISCO 2
1 68431U 26067R   26173.32048661  .00005773  00000-0  27798-3 0  9990
2 68431  97.4598 131.8358 0002285  34.6023 325.5360 15.19136975 12723
HADES-SA (SpinnyONE)
1 68446U 26067AG  26173.62306123  .00014513  00000-0  69095-3 0  9997
2 68446  97.4415 131.8380 0009075  67.6934 292.5262 15.19216479 12758
PARUS-6U1
1 68456U 26067AS  26173.59536620  .00004089  00000-0  20685-3 0  9990
2 68456  97.4549 131.8754 0007188  57.6054 302.5874 15.17564090 12751
SAL-E
1 68458U 26067AU  26173.32621824  .00005585  00000-0  27924-3 0  9999
2 68458  97.4473 131.5433 0007721  65.8925 294.3116 15.17817295 12712
FSI-SAT 2
1 68792U 26088A   26173.66458107  .00002837  00000-0  19371-3 0  9996
2 68792  97.5076 322.7867 0016076  89.8012 270.5058 15.06872776  9118
OrigamiSat 2
1 68795U 26088D   26173.66675597  .00008887  00000-0  56657-3 0  9992
2 68795  97.5078 322.9411 0016070  64.1668 296.1216 15.08842513  9126
ARICA 2
1 68796U 26088E   26173.66726694  .00002848  00000-0  18627-3 0  9994
2 68796  97.5069 322.9277 0016975  63.1883 297.1079 15.08464438  9123
WASEDA-SAT-ZERO-II
1 68797U 26088F   26173.66217620  .00004032  00000-0  26039-3 0  9992
2 68797  97.5065 322.9336 0016703  63.0625 297.2308 15.08693792  9121
MANGARO-II-Piscus
1 68798U 26088G   26173.38687269  .00002415  00000-0  15685-3 0  9990
2 68798  97.5073 322.6948 0020320  65.9048 294.4303 15.08814179  9080
IO-86
1 40931U          25360.30710720  .00000000  00000-0  12800-3 0    00
2 40931   6.0006 332.5373 0012733 338.8432   8.1437 14.79075515    01
LILIUM-4                
1 71922C 26067AC  26089.50133053 -.00014632  00000+0 -74472-3 0    04
2 71922  97.4497  49.1617 0004341   5.9603 355.7042 15.16896692    16
